Weather History for Liberia, Costa Rica

Change the Weather History Date:

Wednesday, October 10, 2012

  Actual Average Record
Temperature  
Mean Temperature 79 °F -  
Max Temperature 86 °F 84 °F 91 °F (1998)
Min Temperature 72 °F 73 °F 71 °F (2013)
Cooling Degree Days 14    
Growing Degree Days 29 (Base 50)    
Moisture  
Dew Point 73 °F    
Average Humidity 88    
Maximum Humidity 100    
Minimum Humidity 70    
Precipitation  
Precipitation 0.04 in - - ()
Sea Level Pressure  
Sea Level Pressure 29.91 in    
Wind  
Wind Speed 4 mph ()    
Max Wind Speed 9 mph    
Max Gust Speed -    
Visibility 7.6 miles    
Events Rain , Thunderstorm    
Averages and records for this station are not official NWS values.
T = Trace of Precipitation, MM = Missing Value Source: Averaged Metar Reports

Daily Weather History Graph

Daily Weather History Graph

Search for Another Location

Airport:

Trip Planner

Search our weather history database for the weather conditions in past years. The results will help you decide how hot, cold, wet, or windy it might be!

Date:

Astronomy

Oct. 10, 2012 Rise Set
Actual Time 5:30 AM CST 5:27 PM CST
Civil Twilight 5:09 AM CST 5:48 PM CST
Nautical Twilight 4:45 AM CST 6:12 PM CST
Astronomical Twilight 4:20 AM CST 6:37 PM CST
Moon 12:59 AM CST (10/10) 1:41 PM CST (10/10)
Length of Visible Light 12h 38m
Length of Day
11h 56m
Waning Crescent, 26% of the Moon is Illuminated
Oct 10
Waning Crescent
Oct 15
New
Oct 21
First Quarter
Oct 29
Full
Nov 6
Last Quarter

Hourly Weather History & Observations

Time (CST) Temp. Heat Index Dew Point Humidity Pressure Visibility Wind Dir Wind Speed Gust Speed Precip Events Conditions
6:00 AM 73 °F - 72 °F 95% 29.94 in 12 mi NE 4.6 mph - -   Overcast
6:00 AM 73.4 °F - 71.6 °F 94% 29.93 in 6.2 mi NE 4.6 mph - N/A   Mostly Cloudy
7:00 AM 75.2 °F - 73.4 °F 94% 29.93 in 6.2 mi NNE 3.5 mph - N/A   Mostly Cloudy
8:00 AM 77.0 °F - 73.4 °F 89% 29.95 in 6.2 mi NE 3.5 mph - N/A   Mostly Cloudy
9:00 AM 82 °F - 74 °F 70% 29.99 in 12 mi ESE 3.5 mph - -   Overcast
9:00 AM 82.4 °F 88.2 °F 73.4 °F 74% 29.97 in 6.2 mi ESE 3.5 mph - N/A   Mostly Cloudy
10:00 AM 86.0 °F 95.1 °F 75.2 °F 70% 29.97 in 6.2 mi SSW 3.5 mph - N/A   Mostly Cloudy
11:00 AM 84.2 °F 92.3 °F 75.2 °F 74% 29.95 in 6.2 mi SW 3.5 mph - N/A Rain Light Rain
11:13 AM 78.8 °F - 73.4 °F 83% 29.93 in 6.2 mi West 9.2 mph - N/A Rain Rain
12:00 PM 77 °F - 73 °F 83% 29.93 in 12 mi SSW 6.9 mph - - Rain Rain
12:00 PM 77.0 °F - 73.4 °F 89% 29.91 in 6.2 mi SSW 6.9 mph - N/A Rain Rain
1:00 PM 75.2 °F - 71.6 °F 89% 29.88 in 6.2 mi South 4.6 mph - N/A Thunderstorm Mostly Cloudy
2:00 PM 75.2 °F - 71.6 °F 89% 29.86 in 6.2 mi SSE 8.1 mph - N/A Rain Light Rain
3:00 PM 76 °F - 73 °F 88% 29.86 in 12 mi SSW 3.5 mph - -   Partly Cloudy
3:00 PM 75.2 °F - 73.4 °F 94% 29.84 in 6.2 mi SSW 3.5 mph - N/A   Overcast
4:00 PM 77.0 °F - 73.4 °F 89% 29.84 in 6.2 mi Calm Calm - N/A   Overcast
5:00 PM 77.0 °F - 75.2 °F 94% 29.85 in 6.2 mi Calm Calm - N/A   Overcast
6:00 PM 76 °F - 74 °F 93% 29.88 in 12 mi SSE 2.3 mph - -   Partly Cloudy
6:00 PM 75.2 °F - 75.2 °F 100% 29.87 in 6.2 mi SSE 2.3 mph - N/A   Overcast
7:00 PM 75.2 °F - 73.4 °F 94% 29.88 in 6.2 mi SSE 4.6 mph - N/A   Overcast
8:00 PM 75.2 °F - 73.4 °F 94% 29.91 in 6.2 mi SE 3.5 mph - N/A   Overcast